This is the latest recevied weather packets stored in our database for station/object KE0FIN. If no packets are shown the sender has not sent any weather packets the latest 10 day(s).
| Time | Temp. | Humidity | Pressure | Rain* | Wind** | Luminosity | Snow |
|---|---|---|---|---|---|---|---|
| 1777655323 | 17.22° C | 39% | 1070.9 hPa | 0 mm | - | 60 W/m² | - |
| 1777655020 | 17.78° C | 41% | 1070.8 hPa | 0 mm | - | 51 W/m² | - |
| 1777654718 | 17.78° C | 42% | 1071.1 hPa | 0 mm | - | 49 W/m² | - |
| 1777654416 | 17.22° C | 41% | 1070.9 hPa | 0 mm | - | 49 W/m² | - |
| 1777654113 | 16.67° C | 44% | 1070.9 hPa | 0 mm | - | 49 W/m² | - |
| 1777653811 | 16.67° C | 41% | 1070.9 hPa | 0 mm | - | 48 W/m² | - |
| 1777653507 | 16.67° C | 45% | 1071 hPa | 0 mm | - | 48 W/m² | - |
| 1777653204 | 16.11° C | 49% | 1071.1 hPa | 0 mm | - | 147 W/m² | - |
| 1777652901 | 16.11° C | 46% | 1071 hPa | 0 mm | - | 118 W/m² | - |
| 1777652597 | 16.11° C | 48% | 1071.1 hPa | 0 mm | - | 73 W/m² | - |
| 1777652294 | 15.56° C | 50% | 1071 hPa | 0 mm | - | 173 W/m² | - |
| 1777651991 | 15.56° C | 49% | 1071.3 hPa | 0 mm | - | 47 W/m² | - |
| 1777651687 | 15.56° C | 49% | 1071.3 hPa | 0 mm | - | 45 W/m² | - |
| 1777651384 | 15.56° C | 49% | 1071.1 hPa | 0 mm | - | 46 W/m² | - |
| 1777651082 | 15.56° C | 52% | 1071.1 hPa | 0 mm | - | 44 W/m² | - |
| 1777650778 | 15° C | 52% | 1071.2 hPa | 0 mm | - | 44 W/m² | - |
| 1777650475 | 15° C | 51% | 1071 hPa | 0 mm | - | 43 W/m² | - |
| 1777650172 | 15° C | 52% | 1070.9 hPa | 0 mm | - | 43 W/m² | - |
| 1777649869 | 15° C | 49% | 1071.1 hPa | 0 mm | - | 43 W/m² | - |
| 1777649567 | 15.56° C | 51% | 1070.9 hPa | 0 mm | - | 93 W/m² | - |
| 1777649263 | 15.56° C | 52% | 1071.1 hPa | 0 mm | - | 64 W/m² | - |
| 1777648960 | 15° C | 52% | 1071.3 hPa | 0 mm | - | 122 W/m² | - |
| 1777648652 | 15° C | 52% | 1071.1 hPa | 0 mm | - | 231 W/m² | - |
| 1777648348 | 14.44° C | 54% | 1071.2 hPa | 0 mm | - | 129 W/m² | - |
| 1777648045 | 14.44° C | 53% | 1071.1 hPa | 0 mm | - | 357 W/m² | - |
* Rain latest hour (hover to see other rain measurements)
** Current wind speed in m/s (hover to see current wind gust speed)